Terminal Aerodrome Forecast
Issued by NWS

Home | Current Version | Previous Version | Text Only | Print | Product List | Glossary On
Versions: 1 2 3 4 5 6 7 8 9 10 11 12 13 14 15 16 17 18 19 20 21 22 23 24 25 26
496
FTAK31 PANC 140538
TAFAEN
TAF
PAEN 140538Z 1406/1506 02016KT P6SM BKN080
      TEMPO 1408/1412 02015G25KT
     FM142100 05008KT P6SM VCSH BKN045=

USA.gov is the U.S. government's official web portal to all federal, state and local government web resources and services.